• MPC Preparation (Info)

  • MPEC 2009-V47 : 2009 VM24

    The following Minor Planet Electronic Circular may be linked-to from your own Web pages, but must not otherwise be redistributed electronically.

    A form allowing access to any MPEC is at the bottom of this page.


    Read MPEC 2009-V46 Read MPEC 2009-V48


    M.P.E.C. 2009-V47                                Issued 2009 Nov. 12, 01:57 UT
    
         The Minor Planet Electronic Circulars contain information on unusual
             minor planets and routine data on comets.  They are published
       on behalf of Commission 20 of the International Astronomical Union by the
              Minor Planet Center, Smithsonian Astrophysical Observatory,
                              Cambridge, MA 02138, U.S.A.
    
                 Prepared using the Tamkin Foundation Computer Network
    
                                  MPC@CFA.HARVARD.EDU
              URL http://www.cfa.harvard.edu/iau/mpc.html  ISSN 1523-6714
    
                                       2009 VM24
    
    Observations:
         K09V24M* C2009 11 10.33392 02 46 05.66 +21 34 36.8          20.5 V EV047G96
         K09V24M  C2009 11 10.34001 02 46 01.84 +21 35 54.8          21.2 V EV047G96
         K09V24M  C2009 11 10.34595 02 45 58.21 +21 37 10.0          20.9 V EV047G96
         K09V24M  C2009 11 10.35214 02 45 54.39 +21 38 28.4          20.2 V EV047G96
         K09V24M  C2009 11 10.38903 02 45 31.59 +21 46 18.0          20.8 V EV047G96
         K09V24M  C2009 11 10.38950 02 45 31.36 +21 46 23.3          21.4 V EV047G96
         K09V24M  C2009 11 10.38999 02 45 31.04 +21 46 30.0                 EV047G96
         K09V24M  C2009 11 10.39046 02 45 30.69 +21 46 36.4                 EV047G96
         K09V24M  C2009 11 10.41385 02 45 16.37 +21 51 33.7          20.5 V EV047G96
         K09V24M  C2009 11 10.41433 02 45 16.08 +21 51 39.9          21.6 V EV047G96
         K09V24M  C2009 11 11.11543 02 38 30.83 +24 29 01.5          20.8 R EV047926
         K09V24M  C2009 11 11.11954 02 38 28.07 +24 30 00.0          21.4 R EV047926
         K09V24M  C2009 11 11.12363 02 38 25.26 +24 30 59.3          21.5 R EV047926
         K09V24M  C2009 11 11.26250 02 36 46.35 +25 03 58.9          19.7 R EV047H01
         K09V24M  C2009 11 11.26718 02 36 42.95 +25 05 05.4          19.8 R EV047H01
         K09V24M  C2009 11 11.27198 02 36 39.45 +25 06 13.6          19.8 R EV047H01
         K09V24M  C2009 11 11.27706 02 36 35.74 +25 07 25.9          19.7 R EV047H01
         K09V24M  C2009 11 11.28201 02 36 32.16 +25 08 36.4          19.7 R EV047H01
    
    Observer details:
    926 Tenagra II Observatory.  Observers P. R. Holvorcem, M. Schwartz.  Measurer
        P. R. Holvorcem.  0.81-m f/7 Ritchey-Chretien + CCD.
    G96 Mt. Lemmon Survey.  Observer A. R. Gibbs.  Measurers E. C. Beshore,
        A. Boattini, G. J. Garradd, A. R. Gibbs, A. D. Grauer, R. E. Hill,
        R. A. Kowalski, S. M. Larson, R. H. McNaught.  1.5-m reflector + CCD.
    H01 Magdalena Ridge Observatory, Socorro.  Observers W. H. Ryan, E. V. Ryan.
        Measurer W. H. Ryan.  2.4-m f/8.9 reflector + CCD.
    
    Orbital elements:
    2009 VM24                                                Earth MOID = 0.0350 AU
    Epoch 2010 Jan. 4.0 TT = JDT 2455200.5                  MPC
    M 344.64503              (2000.0)            P               Q
    n   0.83792906     Peri.   88.61029     -0.69335661     -0.70554775
    a   1.1142891      Node    46.48658     +0.55431723     -0.65211815
    e   0.2320301      Incl.   11.65360     +0.46042266     -0.27738832
    P   1.18           H   26.6           G   0.15           U   8
    Residuals in seconds of arc
    091110 G96  0.3+  0.3+    091110 G96  0.3+  0.3-    091111 926  0.3-  0.4+
    091110 G96  0.4-  0.7+    091110 G96  0.5-  0.1+    091111 H01  0.1+  0.0
    091110 G96  0.2+  0.2+    091110 G96  0.3-  0.0     091111 H01  0.1+  0.0
    091110 G96  0.4+  0.2-    091110 G96  0.3-  0.0     091111 H01  0.0   0.1-
    091110 G96  0.2-  0.1-    091111 926  0.1-  0.1+    091111 H01  0.2-  0.0
    091110 G96  0.6+  0.8-    091111 926  0.2+  0.3-    091111 H01  0.1+  0.1+
    
    Ephemeris:
    2009 VM24                a,e,i = 1.11, 0.23, 12                  q = 0.8557
    Date    TT    R. A. (2000) Decl.     Delta      r     Elong.  Phase     V
    2009 11 05    03 19.57   +07 33.2    0.0736   1.063   167.5    11.6    21.8
    2009 11 06    03 15.14   +09 32.1    0.0692   1.060   170.2     9.2    21.5
    2009 11 07    03 10.04   +11 46.6    0.0651   1.056   173.1     6.4    21.3
    2009 11 08    03 04.14   +14 18.7    0.0611   1.052   176.4     3.4    21.0
    2009 11 09    02 57.25   +17 10.8    0.0574   1.048   179.6     0.4    20.6
    2009 11 10    02 49.17   +20 24.9    0.0538   1.044   175.7     4.1    20.7
    2009 11 11    02 39.59   +24 02.9    0.0506   1.040   171.1     8.4    20.8
    2009 11 12    02 28.12   +28 05.6    0.0478   1.036   166.0    13.4    20.8
    2009 11 13    02 14.26   +32 31.8    0.0453   1.032   160.3    18.8    20.9
    2009 11 14    01 57.35   +37 17.6    0.0433   1.029   154.1    24.8    21.0
    2009 11 15    01 36.53   +42 15.1    0.0418   1.025   147.5    31.3    21.1
    
    Timothy B. Spahr             (C) Copyright 2009 MPC           M.P.E.C. 2009-V47
    

    Read MPEC 2009-V46 Read MPEC 2009-V48


    MPEC number:

    Enter an MPEC number in one of the following forms:

    • 1997-B01 (the full form)
    • J97B01 (the packed version of the full form)
    • B01 (the abbreviated form)